QFA204 YMML-YSSY

Flight info

Callsign QFA204
Flight time 1h 0m
Altitude 39000
Route ML H129 DOSEL Y59 RIVET
Aircraft A21N/M-SDE2E3FGHIRWXY/LB1

Departure

Time 2026-05-08 00:27
Airport Melbourne Airport (YMML)

Arrival

Time 2026-05-08 01:28
Airport Sydney Kingsford Smith International Airport (YSSY)
Time Latitude Longitude Altitude Speed Heading
2026-05-08 00:24 -37.66380 144.84781 413 ft 1 kts
2026-05-08 00:24 -37.66346 144.84785 413 ft 0 kts
2026-05-08 00:25 -37.66295 144.84790 412 ft 10 kts
2026-05-08 00:25 -37.66228 144.84770 418 ft 12 kts 292°
2026-05-08 00:25 -37.66223 144.84743 413 ft 0 kts 274°
2026-05-08 00:27 -37.66216 144.84621 411 ft 47 kts 274°
2026-05-08 00:27 -37.66174 144.83868 413 ft 121 kts 274°
2026-05-08 00:27 -37.66092 144.82653 681 ft 145 kts 272°
2026-05-08 00:27 -37.66021 144.81437 1481 ft 134 kts 270°
2026-05-08 00:28 -37.65999 144.80234 2055 ft 137 kts 265°
2026-05-08 00:28 -37.65947 144.79030 2707 ft 145 kts 266°
2026-05-08 00:28 -37.65862 144.77683 3178 ft 165 kts 266°
2026-05-08 00:28 -37.65772 144.76129 3704 ft 190 kts 266°
2026-05-08 00:29 -37.65673 144.74344 4221 ft 218 kts 267°
2026-05-08 00:29 -37.65556 144.72330 4835 ft 239 kts 268°
2026-05-08 00:29 -37.65429 144.70200 5719 ft 247 kts 268°
2026-05-08 00:29 -37.65193 144.68021 6639 ft 258 kts 279°
2026-05-08 00:30 -37.64335 144.65959 7477 ft 277 kts 303°
2026-05-08 00:30 -37.62733 144.64483 8284 ft 298 kts 331°
2026-05-08 00:30 -37.60724 144.63662 9084 ft 309 kts 340°
2026-05-08 00:30 -37.58620 144.62961 9887 ft 316 kts 341°
2026-05-08 00:31 -37.56408 144.62501 10509 ft 333 kts 357°
2026-05-08 00:31 -37.54059 144.62994 10893 ft 354 kts 21°
2026-05-08 00:31 -37.51889 144.64577 11243 ft 369 kts 43°
2026-05-08 00:31 -37.50190 144.67033 11624 ft 379 kts 60°
2026-05-08 00:32 -37.48731 144.69874 11979 ft 394 kts 61°
2026-05-08 00:32 -37.47238 144.72838 12482 ft 403 kts 64°
2026-05-08 00:32 -37.45880 144.75938 13261 ft 407 kts 65°
2026-05-08 00:32 -37.44484 144.79063 13977 ft 412 kts 64°
2026-05-08 00:33 -37.43053 144.82212 14605 ft 417 kts 64°
2026-05-08 00:33 -37.41599 144.85384 15189 ft 422 kts 64°
2026-05-08 00:33 -37.40119 144.88596 15763 ft 427 kts 64°
2026-05-08 00:33 -37.38625 144.91850 16434 ft 432 kts 64°
2026-05-08 00:34 -37.37115 144.95139 17103 ft 436 kts 63°
2026-05-08 00:34 -37.35590 144.98451 17796 ft 440 kts 63°
2026-05-08 00:34 -37.34048 145.01792 18457 ft 444 kts 63°
2026-05-08 00:34 -37.32509 145.05129 18987 ft 450 kts 63°
2026-05-08 00:35 -37.30913 145.08587 19548 ft 454 kts 63°
2026-05-08 00:35 -37.29317 145.12031 20114 ft 458 kts 63°
2026-05-08 00:35 -37.27709 145.15495 20663 ft 461 kts 63°
2026-05-08 00:35 -37.26114 145.18943 21201 ft 465 kts 63°
2026-05-08 00:36 -37.24459 145.22511 21745 ft 468 kts 63°
2026-05-08 00:36 -37.22841 145.26010 22273 ft 472 kts 63°
2026-05-08 00:36 -37.21177 145.29584 22794 ft 476 kts 63°
2026-05-08 00:36 -37.19502 145.33182 23289 ft 480 kts 63°
2026-05-08 00:37 -37.17809 145.36809 23792 ft 484 kts 62°
2026-05-08 00:37 -37.16027 145.40415 24233 ft 489 kts 58°
2026-05-08 00:37 -37.14051 145.43899 24661 ft 492 kts 57°
2026-05-08 00:38 -37.10021 145.50899 25498 ft 500 kts 57°
2026-05-08 00:38 -37.07974 145.54458 25745 ft 507 kts 57°
2026-05-08 00:38 -37.05892 145.58072 25929 ft 516 kts 57°
2026-05-08 00:38 -37.03783 145.61731 26263 ft 519 kts 57°
2026-05-08 00:39 -37.01675 145.65385 26756 ft 518 kts 57°
2026-05-08 00:39 -36.99570 145.69035 27300 ft 516 kts 57°
2026-05-08 00:39 -36.97472 145.72668 27790 ft 515 kts 57°
2026-05-08 00:39 -36.95375 145.76293 28289 ft 514 kts 57°
2026-05-08 00:40 -36.93280 145.79913 28797 ft 514 kts 57°
2026-05-08 00:40 -36.91179 145.83537 29207 ft 515 kts 57°
2026-05-08 00:40 -36.89081 145.87156 29666 ft 514 kts 57°
2026-05-08 00:40 -36.86981 145.90769 30143 ft 513 kts 57°
2026-05-08 00:41 -36.84887 145.94369 30573 ft 512 kts 57°
2026-05-08 00:41 -36.82800 145.97960 30957 ft 511 kts 57°
2026-05-08 00:41 -36.80712 146.01546 31306 ft 510 kts 57°
2026-05-08 00:41 -36.78625 146.05126 31710 ft 509 kts 57°
2026-05-08 00:42 -36.76570 146.08647 32030 ft 510 kts 57°
2026-05-08 00:42 -36.74483 146.12217 32345 ft 509 kts 57°
2026-05-08 00:42 -36.72401 146.15781 32696 ft 508 kts 57°
2026-05-08 00:42 -36.70317 146.19338 33041 ft 507 kts 57°
2026-05-08 00:43 -36.68238 146.22884 33353 ft 507 kts 57°
2026-05-08 00:43 -36.66161 146.26425 33681 ft 506 kts 57°
2026-05-08 00:43 -36.64085 146.29957 34003 ft 505 kts 57°
2026-05-08 00:43 -36.62012 146.33480 34305 ft 504 kts 57°
2026-05-08 00:44 -36.59942 146.36997 34543 ft 504 kts 57°
2026-05-08 00:44 -36.57873 146.40510 34794 ft 503 kts 56°
2026-05-08 00:44 -36.55804 146.44014 35049 ft 502 kts 56°
2026-05-08 00:44 -36.53743 146.47507 35296 ft 501 kts 56°
2026-05-08 00:45 -36.52350 146.49865 35458 ft 500 kts 56°
2026-05-08 00:45 -36.50320 146.53297 35703 ft 499 kts 56°
2026-05-08 00:45 -36.48267 146.56764 35922 ft 498 kts 56°
2026-05-08 00:45 -36.46215 146.60225 36157 ft 497 kts 56°
2026-05-08 00:46 -36.44172 146.63677 36369 ft 496 kts 56°
2026-05-08 00:46 -36.42126 146.67127 36578 ft 495 kts 56°
2026-05-08 00:46 -36.40083 146.70561 36788 ft 495 kts 56°
2026-05-08 00:46 -36.38041 146.73996 36989 ft 494 kts 56°
2026-05-08 00:47 -36.35998 146.77421 37178 ft 493 kts 55°
2026-05-08 00:47 -36.33960 146.80840 37368 ft 492 kts 55°
2026-05-08 00:47 -36.31926 146.84248 37589 ft 491 kts 55°
2026-05-08 00:47 -36.29888 146.87656 37724 ft 492 kts 55°
2026-05-08 00:48 -36.27851 146.91065 37846 ft 493 kts 55°
2026-05-08 00:48 -36.25810 146.94480 37990 ft 493 kts 55°
2026-05-08 00:48 -36.23765 146.97888 38136 ft 493 kts 55°
2026-05-08 00:48 -36.21721 147.01294 38244 ft 493 kts 54°
2026-05-08 00:49 -36.19673 147.04697 38384 ft 492 kts 54°
2026-05-08 00:49 -36.17632 147.08097 38517 ft 492 kts 54°
2026-05-08 00:49 -36.15591 147.11492 38672 ft 492 kts 54°
2026-05-08 00:50 -36.11500 147.18286 38819 ft 493 kts 54°
2026-05-08 00:50 -36.07393 147.25084 38956 ft 493 kts 53°
2026-05-08 00:51 -36.03287 147.31869 39124 ft 492 kts 53°
2026-05-08 00:51 -35.99177 147.38635 39276 ft 493 kts 53°
2026-05-08 00:52 -35.95086 147.45388 39273 ft 495 kts 53°
2026-05-08 00:52 -35.90952 147.52184 39260 ft 495 kts 53°
2026-05-08 00:53 -35.86805 147.58970 39258 ft 495 kts 53°
2026-05-08 00:53 -35.82660 147.65751 39287 ft 495 kts 53°
2026-05-08 00:54 -35.78512 147.72527 39247 ft 496 kts 52°
2026-05-08 00:54 -35.74357 147.79301 39257 ft 496 kts 52°
2026-05-08 00:55 -35.70202 147.86070 39256 ft 496 kts 52°
2026-05-08 00:55 -35.66037 147.92831 39269 ft 496 kts 52°
2026-05-08 00:56 -35.61879 147.99572 39255 ft 495 kts 52°
2026-05-08 00:56 -35.57715 148.06303 39253 ft 495 kts 52°
2026-05-08 00:57 -35.53543 148.13030 39256 ft 495 kts 52°
2026-05-08 00:57 -35.49372 148.19752 39239 ft 496 kts 51°
2026-05-08 00:58 -35.45190 148.26477 39245 ft 497 kts 51°
2026-05-08 00:58 -35.40980 148.33235 39244 ft 498 kts 51°
2026-05-08 00:59 -35.36804 148.39921 39233 ft 497 kts 51°
2026-05-08 00:59 -35.32593 148.46654 39236 ft 498 kts 51°
2026-05-08 01:00 -35.28381 148.53375 39229 ft 496 kts 51°
2026-05-08 01:00 -35.24196 148.60041 39221 ft 495 kts 51°
2026-05-08 01:01 -35.19980 148.66749 39224 ft 499 kts 51°
2026-05-08 01:01 -35.15721 148.73503 39232 ft 503 kts 51°
2026-05-08 01:02 -35.11435 148.80288 39231 ft 505 kts 51°
2026-05-08 01:02 -35.07136 148.87081 39232 ft 505 kts 51°
2026-05-08 01:03 -35.02829 148.93872 39229 ft 507 kts 50°
2026-05-08 01:03 -34.98514 149.00671 39229 ft 507 kts 50°
2026-05-08 01:04 -34.94185 149.07472 39248 ft 509 kts 50°
2026-05-08 01:04 -34.89822 149.14314 39232 ft 512 kts 50°
2026-05-08 01:05 -34.85472 149.21123 38658 ft 506 kts 50°
2026-05-08 01:05 -34.83312 149.24501 37982 ft 506 kts 50°
2026-05-08 01:05 -34.81146 149.27882 37242 ft 507 kts 51°
2026-05-08 01:05 -34.78978 149.31262 36522 ft 508 kts 51°
2026-05-08 01:06 -34.76803 149.34651 35805 ft 508 kts 52°
2026-05-08 01:06 -34.74658 149.38058 35074 ft 508 kts 55°
2026-05-08 01:06 -34.72812 149.41714 34395 ft 507 kts 63°
2026-05-08 01:06 -34.71157 149.45489 33630 ft 506 kts 64°
2026-05-08 01:07 -34.69520 149.49281 32815 ft 506 kts 64°
2026-05-08 01:07 -34.67882 149.53068 31990 ft 507 kts 64°
2026-05-08 01:07 -34.66231 149.56862 31194 ft 508 kts 64°
2026-05-08 01:07 -34.64572 149.60653 30438 ft 509 kts 64°
2026-05-08 01:08 -34.62903 149.64459 29466 ft 511 kts 65°
2026-05-08 01:08 -34.61234 149.68272 28497 ft 514 kts 64°
2026-05-08 01:08 -34.59542 149.72137 27571 ft 519 kts 64°
2026-05-08 01:08 -34.57843 149.76006 26591 ft 519 kts 64°
2026-05-08 01:09 -34.56143 149.79872 25607 ft 520 kts 64°
2026-05-08 01:09 -34.54441 149.83735 24686 ft 518 kts 65°
2026-05-08 01:09 -34.52748 149.87574 23930 ft 514 kts 65°
2026-05-08 01:09 -34.51070 149.91376 23178 ft 509 kts 65°
2026-05-08 01:10 -34.49405 149.95141 22427 ft 504 kts 65°
2026-05-08 01:10 -34.47720 149.98958 21974 ft 519 kts 65°
2026-05-08 01:10 -34.46012 150.02814 21573 ft 518 kts 65°
2026-05-08 01:10 -34.44343 150.06574 20992 ft 509 kts 65°
2026-05-08 01:11 -34.42678 150.10326 20344 ft 502 kts 65°
2026-05-08 01:11 -34.41037 150.14019 19688 ft 495 kts 65°
2026-05-08 01:11 -34.39417 150.17663 19055 ft 489 kts 65°
2026-05-08 01:11 -34.37808 150.21275 18380 ft 485 kts 65°
2026-05-08 01:12 -34.36216 150.24848 17582 ft 481 kts 65°
2026-05-08 01:12 -34.34631 150.28402 16908 ft 478 kts 64°
2026-05-08 01:12 -34.33060 150.31917 16265 ft 472 kts 64°
2026-05-08 01:12 -34.31505 150.35396 15700 ft 467 kts 64°
2026-05-08 01:13 -34.29969 150.38837 15140 ft 462 kts 64°
2026-05-08 01:13 -34.28456 150.42232 14622 ft 456 kts 64°
2026-05-08 01:13 -34.26962 150.45580 14172 ft 449 kts 64°
2026-05-08 01:13 -34.25491 150.48878 13742 ft 443 kts 63°
2026-05-08 01:14 -34.24039 150.52126 13160 ft 438 kts 63°
2026-05-08 01:14 -34.22590 150.55359 12572 ft 435 kts 63°
2026-05-08 01:14 -34.21163 150.58538 12107 ft 424 kts 63°
2026-05-08 01:14 -34.19780 150.61609 11770 ft 408 kts 63°
2026-05-08 01:15 -34.18450 150.64558 11521 ft 392 kts 63°
2026-05-08 01:15 -34.17170 150.67398 11301 ft 377 kts 63°
2026-05-08 01:15 -34.15940 150.70128 11096 ft 363 kts 63°
2026-05-08 01:15 -34.14760 150.72746 10902 ft 348 kts 63°
2026-05-08 01:16 -34.13640 150.75229 10649 ft 335 kts 63°
2026-05-08 01:16 -34.12547 150.77655 10298 ft 324 kts 63°
2026-05-08 01:16 -34.11458 150.80069 9709 ft 322 kts 63°
2026-05-08 01:16 -34.10406 150.82399 9220 ft 317 kts 63°
2026-05-08 01:17 -34.09357 150.84724 8612 ft 316 kts 63°
2026-05-08 01:17 -34.08316 150.87041 8214 ft 311 kts 64°
2026-05-08 01:17 -34.07291 150.89321 7844 ft 307 kts 64°
2026-05-08 01:17 -34.06272 150.91583 7472 ft 308 kts 64°
2026-05-08 01:18 -34.05249 150.93855 7115 ft 307 kts 65°
2026-05-08 01:18 -34.04243 150.96085 6829 ft 300 kts 64°
2026-05-08 01:18 -34.03405 150.98352 6480 ft 291 kts 80°
2026-05-08 01:18 -34.03317 151.00704 6113 ft 277 kts 106°
2026-05-08 01:19 -34.04023 151.02785 5789 ft 263 kts 130°
2026-05-08 01:19 -34.05198 151.04401 5539 ft 254 kts 140°
2026-05-08 01:19 -34.06441 151.05899 5268 ft 250 kts 141°
2026-05-08 01:19 -34.07704 151.07290 4994 ft 241 kts 151°
2026-05-08 01:20 -34.09166 151.08135 4730 ft 228 kts 169°
2026-05-08 01:20 -34.10691 151.08532 4488 ft 221 kts 174°
2026-05-08 01:20 -34.12186 151.08874 4240 ft 217 kts 175°
2026-05-08 01:20 -34.13662 151.09227 3996 ft 216 kts 174°
2026-05-08 01:21 -34.15141 151.09593 3764 ft 218 kts 174°
2026-05-08 01:21 -34.16622 151.09969 3522 ft 218 kts 173°
2026-05-08 01:21 -34.18131 151.10676 3377 ft 245 kts 152°
2026-05-08 01:21 -34.19315 151.12221 3271 ft 261 kts 126°
2026-05-08 01:22 -34.19795 151.14380 3076 ft 276 kts 95°
2026-05-08 01:22 -34.19391 151.16651 2972 ft 274 kts 74°
2026-05-08 01:22 -34.18730 151.18736 2959 ft 257 kts 73°
2026-05-08 01:22 -34.18092 151.20660 2954 ft 237 kts 68°
2026-05-08 01:23 -34.17228 151.22316 2959 ft 236 kts 43°
2026-05-08 01:23 -34.15789 151.23184 2974 ft 231 kts
2026-05-08 01:23 -34.14230 151.23074 2993 ft 221 kts 340°
2026-05-08 01:23 -34.12758 151.22583 2987 ft 219 kts 335°
2026-05-08 01:24 -34.11319 151.22056 2963 ft 210 kts 336°
2026-05-08 01:24 -34.09983 151.21636 2859 ft 189 kts 338°
2026-05-08 01:24 -34.08741 151.21286 2619 ft 177 kts 338°
2026-05-08 01:24 -34.07615 151.20988 2378 ft 154 kts 337°
2026-05-08 01:25 -34.06637 151.20730 2145 ft 139 kts 336°
2026-05-08 01:25 -34.05711 151.20487 1942 ft 134 kts 337°
2026-05-08 01:25 -34.04798 151.20247 1767 ft 135 kts 337°
2026-05-08 01:25 -34.03884 151.20009 1587 ft 134 kts 337°
2026-05-08 01:26 -34.02983 151.19773 1411 ft 134 kts 336°
2026-05-08 01:26 -34.02075 151.19537 1235 ft 135 kts 337°
2026-05-08 01:26 -34.01169 151.19301 1046 ft 132 kts 338°
2026-05-08 01:26 -34.00271 151.19066 868 ft 133 kts 338°
2026-05-08 01:27 -33.99374 151.18834 691 ft 130 kts 339°
2026-05-08 01:27 -33.98488 151.18606 481 ft 130 kts 340°
2026-05-08 01:27 -33.97592 151.18390 335 ft 132 kts 340°
2026-05-08 01:27 -33.96726 151.18150 125 ft 127 kts 338°
2026-05-08 01:28 -33.95867 151.17925 39 ft 122 kts 337°
2026-05-08 01:28 -33.95160 151.17732 33 ft 78 kts 349°
2026-05-08 01:28 -33.94777 151.17646 34 ft 42 kts
2026-05-08 01:28 -33.94578 151.17658 35 ft 19 kts 10°
2026-05-08 01:29 -33.94459 151.17702 35 ft 11 kts 20°
2026-05-08 01:29 -33.94419 151.17719 35 ft 3 kts 19°
2026-05-08 01:29 -33.94409 151.17723 35 ft 0 kts 18°
2026-05-08 01:30 -33.94364 151.17736 35 ft 11 kts
2026-05-08 01:30 -33.94278 151.17718 35 ft 14 kts 345°
2026-05-08 01:30 -33.94167 151.17682 34 ft 24 kts 345°
2026-05-08 01:31 -33.93999 151.17634 34 ft 26 kts 348°
2026-05-08 01:31 -33.93817 151.17588 34 ft 28 kts 347°
2026-05-08 01:31 -33.93625 151.17537 34 ft 29 kts 347°
2026-05-08 01:31 -33.93453 151.17499 35 ft 20 kts
2026-05-08 01:32 -33.93307 151.17484 35 ft 22 kts 347°
2026-05-08 01:32 -33.93157 151.17446 35 ft 16 kts 348°
2026-05-08 01:32 -33.93073 151.17477 36 ft 15 kts 68°
2026-05-08 01:32 -33.93027 151.17549 36 ft 8 kts 37°
2026-05-08 01:33 -33.93007 151.17621 35 ft 11 kts 92°
2026-05-08 01:33 -33.93010 151.17650 35 ft 3 kts 102°
2026-05-08 01:33 -33.93012 151.17657 35 ft 0 kts 104°
2026-05-08 01:33 -33.93028 151.17700 35 ft 8 kts 117°
2026-05-08 01:34 -33.93048 151.17747 35 ft 10 kts 115°
2026-05-08 01:34 -33.93086 151.17766 35 ft 7 kts 191°
2026-05-08 01:34 -33.93132 151.17755 35 ft 3 kts 193°
2026-05-08 01:34 -33.93133 151.17755 35 ft 0 kts 193°
2026-05-08 01:35 -33.93127 151.17756 35 ft 0 kts 191°